Dallas Addison, TX

7:17 AM CDT on May 26, 2018 (GMT -0500)
Addison

Weather History for KADS - June, 2013

Change the Weather History Date:

Wednesday, June 26, 2013

  Actual Average Record
Temperature  
Mean Temperature 86 °F -  
Max Temperature 96 °F 89 °F 104 °F (2012)
Min Temperature 77 °F 72 °F 69 °F (2007)
Cooling Degree Days 22    
Growing Degree Days 36 (Base 50)    
Moisture  
Dew Point 64 °F    
Average Humidity 48    
Maximum Humidity 74    
Minimum Humidity 34    
Precipitation  
Precipitation 0.00 in - - ()
Sea Level Pressure  
Sea Level Pressure 29.90 in    
Wind  
Wind Speed 12 mph (South)    
Max Wind Speed 20 mph    
Max Gust Speed 28 mph    
Visibility 11 miles    
Events      
Averages and records for this station are not official NWS values.
T = Trace of Precipitation, MM = Missing Value Source: NWS Daily Summary

Daily Weather History Graph

Daily Weather History Graph

Search for Another Location

Airport or City:

Astronomy

Jun. 26, 2013 Rise Set
Actual Time 6:20 AM CDT 8:39 PM CDT
Civil Twilight 5:52 AM CDT 9:08 PM CDT
Nautical Twilight 5:16 AM CDT 9:43 PM CDT
Astronomical Twilight 4:38 AM CDT 10:21 PM CDT
Moon 11:18 PM CDT 10:01 AM CDT
Length of Visible Light 15h 16m
Length of Day
14h 19m
Waning Gibbous, 85% of the Moon is Illuminated
Jun 26
Waning Gibbous
Jun 29
Last Quarter
Jul 8
New
Jul 15
First Quarter
Jul 22
Full

Hourly Weather History & Observations

Time (CDT) Temp. Heat Index Dew Point Humidity Pressure Visibility Wind Dir Wind Speed Gust Speed Precip Events Conditions
12:15 AM 87.8 °F 87.1 °F 59.0 °F 38% 29.88 in 10.0 mi South 8.1 mph 21.9 mph N/A   Clear
12:35 AM 87.8 °F 87.1 °F 59.0 °F 38% 29.88 in 10.0 mi South 13.8 mph 21.9 mph N/A   Clear
12:55 AM 86.0 °F 85.4 °F 59.0 °F 40% 29.88 in 10.0 mi South 13.8 mph 25.3 mph N/A   Clear
1:15 AM 86.0 °F 85.4 °F 59.0 °F 40% 29.88 in 10.0 mi South 15.0 mph 21.9 mph N/A   Clear
1:35 AM 86.0 °F 86.1 °F 60.8 °F 43% 29.88 in 10.0 mi South 13.8 mph 27.6 mph N/A   Clear
1:55 AM 84.2 °F 84.4 °F 60.8 °F 45% 29.88 in 10.0 mi South 10.4 mph 17.3 mph N/A   Clear
2:15 AM 84.2 °F 84.4 °F 60.8 °F 45% 29.87 in 10.0 mi South 11.5 mph 20.7 mph N/A   Clear
2:35 AM 82.4 °F 83.4 °F 62.6 °F 51% 29.87 in 10.0 mi South 11.5 mph 21.9 mph N/A   Clear
2:55 AM 82.4 °F 83.4 °F 62.6 °F 51% 29.87 in 10.0 mi South 13.8 mph 21.9 mph N/A   Clear
3:15 AM 82.4 °F 83.4 °F 62.6 °F 51% 29.87 in 10.0 mi South 12.7 mph 19.6 mph N/A   Clear
3:35 AM 80.6 °F 81.8 °F 62.6 °F 54% 29.87 in 10.0 mi South 15.0 mph 19.6 mph N/A   Clear
3:55 AM 80.6 °F 81.8 °F 62.6 °F 54% 29.87 in 10.0 mi South 15.0 mph 21.9 mph N/A   Clear
4:15 AM 80.6 °F 81.8 °F 62.6 °F 54% 29.87 in 10.0 mi South 15.0 mph 23.0 mph N/A   Clear
4:35 AM 80.6 °F 82.3 °F 64.4 °F 58% 29.87 in 10.0 mi South 13.8 mph 23.0 mph N/A   Clear
4:55 AM 78.8 °F - 64.4 °F 61% 29.88 in 10.0 mi SSW 12.7 mph 19.6 mph N/A   Clear
5:15 AM 78.8 °F - 64.4 °F 61% 29.89 in 10.0 mi South 12.7 mph 20.7 mph N/A   Clear
5:35 AM 78.8 °F - 64.4 °F 61% 29.89 in 10.0 mi South 12.7 mph 19.6 mph N/A   Clear
5:55 AM 78.8 °F - 64.4 °F 61% 29.90 in 10.0 mi South 12.7 mph 18.4 mph N/A   Clear
6:51 AM 77.0 °F - 68.0 °F 74% 29.92 in 13.0 mi South 12.7 mph 23.0 mph N/A   Partly Cloudy
7:55 AM 78.8 °F - 69.8 °F 74% 29.95 in 13.0 mi South 13.8 mph 20.7 mph N/A   Mostly Cloudy
8:47 AM 80.6 °F 83.2 °F 68.0 °F 65% 29.97 in 13.0 mi South 13.8 mph 21.9 mph N/A   Mostly Cloudy
9:47 AM 82.4 °F 85.4 °F 68.0 °F 62% 29.97 in 13.0 mi SSE 19.6 mph 26.5 mph N/A   Scattered Clouds
10:52 AM 86.0 °F 89.4 °F 68.0 °F 55% 29.97 in 13.0 mi South 15.0 mph 23.0 mph N/A   Partly Cloudy
11:47 AM 87.8 °F 91.4 °F 68.0 °F 52% 29.97 in 13.0 mi South 12.7 mph 20.7 mph N/A   Partly Cloudy
12:52 PM 91.4 °F 96.8 °F 69.8 °F 49% 29.96 in 13.0 mi SSE 15.0 mph 23.0 mph N/A   Clear
1:47 PM 91.4 °F 95.4 °F 68.0 °F 46% 29.94 in 13.0 mi South 15.0 mph 24.2 mph N/A   Clear
2:51 PM 95.0 °F 99.5 °F 68.0 °F 41% 29.91 in 13.0 mi SSE 16.1 mph 24.2 mph N/A   Clear
3:47 PM 95.0 °F 99.5 °F 68.0 °F 41% 29.90 in 13.0 mi SSE 12.7 mph 23.0 mph N/A   Clear
4:47 PM 96.8 °F 101.8 °F 68.0 °F 39% 29.90 in 13.0 mi South 12.7 mph 21.9 mph N/A   Partly Cloudy
6:47 PM 96.8 °F 99.0 °F 64.4 °F 34% 29.87 in 13.0 mi South 11.5 mph 20.7 mph N/A   Partly Cloudy
7:47 PM 95.0 °F 97.0 °F 64.4 °F 36% 29.87 in 13.0 mi South 8.1 mph 17.3 mph N/A   Partly Cloudy
8:47 PM 95.0 °F 97.0 °F 64.4 °F 36% 29.86 in 13.0 mi South 9.2 mph 16.1 mph N/A   Partly Cloudy
9:47 PM 91.4 °F 93.2 °F 64.4 °F 41% 29.88 in 13.0 mi SSE 6.9 mph - N/A   Partly Cloudy
10:15 PM 89.6 °F 90.1 °F 62.6 °F 40% 29.89 in 10.0 mi South 5.8 mph - N/A   Clear
10:35 PM 89.6 °F 90.1 °F 62.6 °F 40% 29.90 in 10.0 mi SSE 6.9 mph - N/A   Clear
10:55 PM 89.6 °F 89.5 °F 60.8 °F 38% 29.91 in 10.0 mi South 6.9 mph - N/A   Clear
11:15 PM 89.6 °F 89.5 °F 60.8 °F 38% 29.91 in 10.0 mi South 8.1 mph - N/A   Clear
11:35 PM 89.6 °F 88.9 °F 59.0 °F 36% 29.92 in 10.0 mi South 6.9 mph 17.3 mph N/A   Clear
11:55 PM 89.6 °F 89.5 °F 60.8 °F 38% 29.92 in 10.0 mi South 6.9 mph - N/A   Clear